Regional Weather Roundup
Issued by NWS

Home | Current Version | Previous Version | Text Only | Print | Product List | Glossary Off
Versions: 1 2 3 4 5 6 7 8 9 10 11 12 13 14 15 16 17 18 19 20 21 22 23 24 25 26 27 28 29 30 31 32 33 34 35 36 37 38 39 40 41 42 43 44 45 46 47 48 49 50

000
ASUS43 KMPX 231301
RWRMN
WEATHER ROUNDUP FOR MINNESOTA
NATIONAL WEATHER SERVICE TWIN CITIES/CHANHASSEN MN
800 AM CDT FRI JUN 23 2017


NOTE: "FAIR" INDICATES FEW OR NO CLOUDS BELOW 12,000 FEET WITH NO
SIGNIFICANT WEATHER AND/OR OBSTRUCTIONS TO VISIBILITY. N/A MEANS
CURRENT SKY AND/OR WEATHER CONDITIONS ARE NOT AVAILABLE.

MNZ060>063-068>070-231400-
   Twin Cities Metro

CITY           SKY/WX    TMP DP  RH WIND       PRES   REMARKS
TWIN CITIES    SUNNY     63  49  60 NW16      29.76R
ST PAUL        SUNNY     63  50  62 NW16G22   29.76R
CRYSTAL        SUNNY     63  47  55 NW10G21   29.75R
BLAINE         SUNNY     63  50  63 NW10      29.75R
LAKEVILLE      SUNNY     61  54  77 W8        29.77R
EDEN PRAIRIE   SUNNY     63  49  60 NW17G24   29.77R
SOUTH ST PAUL  SUNNY     63  49  60 NW10G16   29.76R
LAKE ELMO      FAIR      61  52  72 NW8       29.77R
$$
MNZ001>005-007-008-013>017-022>024-027-028-231400-
   Northwest Minnesota

CITY           SKY/WX    TMP DP  RH WIND       PRES   REMARKS
BEMIDJI        PTSUNNY   57  50  76 NW17G24   29.73R
HALLOCK        CLOUDY    57  54  88 NW18G26   29.77R
ROSEAU           N/A     59  54  82 NW13      29.72R
WARROAD        PTSUNNY   55  52  88 W10       29.71R
CROOKSTON      CLOUDY    61  54  77 NW22      29.79R
FOSSTON        CLOUDY    55  50  82 NW14G21   29.77R
DETROIT LAKES  CLOUDY    59  52  77 NW18G24   29.81R
MOORHEAD       PTSUNNY   61  52  72 NW21G29   29.82R
PARK RAPIDS    MOSUNNY   60  48  64 NW20      29.75R
MAHNOMEN       CLOUDY    57  52  81 NW18G25   29.78R
$$
MNZ006-009>011-018-025>026-231400-
   North Central Minnesota

CITY           SKY/WX    TMP DP  RH WIND       PRES   REMARKS
BAUDETTE       CLOUDY    55  52  89 NW8       29.68R
FLAG ISLAND    CLOUDY    55  52  88 NW16G22   29.66R
INTL FALLS     CLOUDY    57  49  74 NW17G25   29.64R
WASKISH        CLOUDY    55  52  88 NW13G22   29.70R
BIG FORK       MOSUNNY   59  48  67 NW7       29.67R
LONGVILLE      PTSUNNY   57  52  82 W8        29.71R
GRAND RAPIDS   CLOUDY    58  51  78 NW13      29.70R
CRANE LAKE     CLOUDY    54  48  82 W6        29.64R
ORR            MOSUNNY   55  46  71 W13       29.62S
COOK           CLOUDY    55  48  76 W8        29.65R
WALKER         PTSUNNY   58  50  75 W16       29.73R
$$
MNZ012-019>021-037-231400-
   Northeast Minnesota

CITY           SKY/WX    TMP DP  RH WIND       PRES   REMARKS
DULUTH         SUNNY     57  49  74 W12       29.66S
ELY            MOSUNNY   55  48  76 W10G20    29.62S
HIBBING        MOSUNNY   57  50  77 W15G22    29.65S
EVELETH        MOSUNNY   58  45  63 W13G18    29.66R
DULUTH HARBOR  SUNNY     63  52  67 W15G22    29.66F
TWO HARBORS    MOSUNNY   63  52  67 W9G16     29.62S
SILVER BAY     SUNNY     61  50  67 W3        29.61R
GRAND MARAIS     N/A     53  45  74 W5        29.58R
G MARAIS ARPRT SUNNY     57  45  62 W8        29.59S
$$
MNZ029>031-032-039>041-046>048-054>057-064-231400-
   West Central Minnesota

CITY           SKY/WX    TMP DP  RH WIND       PRES   REMARKS
FERGUS FALLS   PTSUNNY   61  54  77 NW16G25   29.80R
WHEATON        CLOUDY    61  52  72 W15G23    29.87R
MORRIS         CLOUDY    59  54  82 W15       29.83R
ALEXANDRIA     CLOUDY    59  52  77 NW14      29.82R
ELBOW LAKE     CLOUDY    59  54  82 NW16G22   29.84R
WADENA         CLOUDY    57  52  82 NW17G23   29.77R
GLENWOOD       PTSUNNY   57  52  82 W16G24    29.82R
APPLETON       CLOUDY    63  52  67 NW20      29.85R
BENSON         CLOUDY    61  54  77 NW14      29.86R
ORTONVILLE     CLOUDY    61  52  72 NW16G25   29.87R
MADISON        MOSUNNY   64  54  68 NW20      29.87R
WILLMAR        CLOUDY    61  54  77 W16G22    29.84R
$$
MNZ033>034-036-042>043-049>051-058-059-231400-
   Central Minnesota

CITY           SKY/WX    TMP DP  RH WIND       PRES   REMARKS
ST CLOUD       SUNNY     61  50  67 W13       29.76R
SAUK CENTRE    PTSUNNY   61  51  70 W16       29.79R
PAYNESVILLE    MOSUNNY   59  51  74 W15G22    29.81R
AITKIN         SUNNY     59  50  72 W7        29.70R
PINE RIVER     MOSUNNY   57  52  82 W9        29.77R
BRAINERD       SUNNY     59  49  69 W10G21    29.74R
STAPLES        PTSUNNY   59  50  72 W16       29.76R
LONG PRAIRIE   CLOUDY    59  50  72 SW14G20   29.79R
LITTLE FALLS   SUNNY     59  48  67 W14       29.76R
LITCHFIELD     SUNNY     63  52  67 W12G20    29.80R
BUFFALO        SUNNY     61  49  64 W12       29.79R
MAPLE LAKE     SUNNY     62  51  68 W9        29.80R
HUTCHINSON     SUNNY     61  51  70 W15G21    29.82R
$$
MNZ037-044-045-052-053-231400-
   East Central Minnesota

CITY           SKY/WX    TMP DP  RH WIND       PRES   REMARKS
PRINCETON      SUNNY     63  50  63 W12       29.76R
MORA           SUNNY     55  46  71 W8        29.74R
CAMBRIDGE      SUNNY     63  48  59 W9        29.74R
RUSH CITY      SUNNY     61  50  67 W7        29.74R
MOOSE LAKE     SUNNY     59  48  67 W8        29.68S
HINCKLEY       FAIR      61  52  72 W7        29.72R
CLOQUET        SUNNY     59  46  63 W10G17    29.68S
MCGREGOR       SUNNY     59  50  72 W12       29.70S
$$
MNZ071>073-080-081-089-090-097-098-231400-
   Southwest Minnesota

CITY           SKY/WX    TMP DP  RH WIND       PRES   REMARKS
MONTEVIDEO     SUNNY     63  52  67 NW15G23   29.85R
GRANITE FALLS  SUNNY     62  54  73 W21       29.87R
CANBY          MOSUNNY   62  53  72 W18G24    29.89S
MARSHALL       SUNNY     62  52  69 NW18G26   29.86S
REDWOOD FALLS  SUNNY     61  50  67 NW14G31   29.84R
OLIVIA         MOSUNNY   59  50  72 W17       29.83R
PIPESTONE      MOSUNNY   59  48  67 NW12G21   29.91R
WINDOM         SUNNY     61  50  67 W13       29.88R
WORTHINGTON    MOSUNNY   59  50  72 NW16G22   29.91R
JACKSON        SUNNY     61  50  67 NW15      29.89R
TRACY          SUNNY     61  52  72 NW18G25   29.89R
SLAYTON        MOSUNNY   58  49  72 NW20      29.90R
$$
MNZ065>067-074>077-082>085-091>093-231400-
   South Central Minnesota

CITY           SKY/WX    TMP DP  RH WIND       PRES   REMARKS
MANKATO        SUNNY     61  49  64 NW15      29.83R
NEW ULM        SUNNY     61  48  63 NW14G20   29.83S
ST JAMES       SUNNY     61  50  67 W15G23    29.86R
FAIRMONT       SUNNY     62  49  62 NW15G22   29.87R
GLENCOE        SUNNY     61  53  74 W13G20    29.80R
FARIBAULT      SUNNY     63  54  72 W8        29.80R
OWATONNA       SUNNY     63  54  72 W10       29.81R
WASECA         SUNNY     59  52  77 W12       29.83R
ALBERT LEA     SUNNY     63  52  67 W6        29.82R
$$
MNZ078>079-086>088-094>096-231400-
   Southeast Minnesota

CITY           SKY/WX    TMP DP  RH WIND       PRES   REMARKS
ROCHESTER      SUNNY     63  56  78 W14       29.79R
RED WING       SUNNY     63  57  82 W7        29.75R
STANTON        SUNNY     63  54  72 W12       29.77R
DODGE CENTER   SUNNY     61  52  72 W12       29.79R
WINONA         SUNNY     63  59  88 NE3       29.74S
AUSTIN         SUNNY     63  54  72 W15       29.80R
PRESTON        SUNNY     64  55  73 W10       29.79R
$$
ABBREVIATIONS USED IN REMARKS
   TC - TEMPERATURES IN CELSIUS
  WCI - WIND CHILL INDEX
   HX - HEAT INDEX
  VSB - VISIBILITY
$$




USA.gov is the U.S. government's official web portal to all federal, state and local government web resources and services.